Regional Weather Roundup
Issued by NWS State College, PA

Home | Current Version | Previous Version | Graphics & Text | Print | Product List | Glossary Off
Versions: 1 2 3 4 5 6 7 8 9 10 11 12 13 14 15 16 17 18 19 20 21 22 23 24 25 26 27 28 29 30 31 32 33 34 35 36 37 38 39 40 41 42 43 44 45 46 47 48 49 50

000
ASUS41 KCTP 231410
RWRCTP

REGIONAL WEATHER ROUNDUP
NATIONAL WEATHER SERVICE STATE COLLEGE PA
1000 AM EDT WED AUG 23 2017

Note: "fair" indicates few or no clouds below 12,000 feet with no
significant weather and/or obstructions to visibility.

* = STATION THAT DOES NOT REPORT PRECIPITATION /E.G. RAIN...SNOW...ETC/
    THUNDER OR FOG.

PAZ002>004-007>009-013>016-020>023-029>032-231500-
WESTERN PENNSYLVANIA

CITY           SKY/WX    TMP DP  RH WIND       PRES   REMARKS
ERIE           MOSUNNY   71  55  56 W12G18    29.92S
MEADVILLE      SUNNY     67  55  65 W10       29.96R
FRANKLIN*      SUNNY     66  54  63 NW6       29.97S
NEW CASTLE     FAIR      67  59  75 VRB6      29.98R
BEAVER COUNTY  SUNNY     68  57  68 N5        29.98S
BUTLER*        MOSUNNY   66  57  72 VRB5      29.98S
PITTSBURGH INT PTSUNNY   69  56  62 NW10G17   29.97R
PITTSBURGH     PTSUNNY   68  57  68 N7        29.97R
INDIANA*       MOSUNNY   68  59  73 NW5       29.99S
LATROBE        PTSUNNY   68  59  73 CALM      29.98R
WASHINGTON CO* PTSUNNY   66  57  72 N5        29.98R
$$

PAZ004>006-010>012-017>019-024>028-033>037-041-042-045-046-049>053-231500-
CENTRAL PENNSYLVANIA

CITY           SKY/WX    TMP DP  RH WIND       PRES   REMARKS
BRADFORD       MOSUNNY   62  54  74 W10       29.96R
DUBOIS         SUNNY     65  55  70 NW10      29.96R
CLEARFIELD     MOSUNNY   69  59  70 NW8       29.96S
JOHNSTOWN      PTSUNNY   65  57  75 NW8       29.98S
ALTOONA        MOSUNNY   68  57  68 NW7       29.96R
STATE COLLEGE  MOSUNNY   68  57  68 NW9       29.94R
WILLIAMSPORT   SUNNY     71  59  65 W7        29.88S
SELINSGROVE    MOSUNNY   73  59  61 E3        29.91R
FT INDIANTOWN  PTSUNNY   73  53  49 N3        29.89R
CAPITAL CITY   PTSUNNY   76  59  55 N10       29.89R
HARRISBURG     MOSUNNY   76  62  62 NW12      29.88R
YORK           MOSUNNY   74  62  66 NW3       29.90R
$$

PAZ038>040-043-044-047-048-054-055-060>062-067>071-231500-
EASTERN PENNSYLVANIA

CITY           SKY/WX    TMP DP  RH WIND       PRES   REMARKS
SCRANTON       MOSUNNY   70  54  56 N7        29.90S
MOUNT POCONO   MOSUNNY   64  51  62 NW10G18   29.91R
ALLENTOWN      SUNNY     73  55  53 NW8       29.88R
QUAKERTOWN*    SUNNY     72  55  56 N6        29.89R
READING        SUNNY     75  59  57 NW6       29.87R
LANCASTER      MOSUNNY   76  63  64 N12G17    29.88S
COATESVILLE    SUNNY     73  63  68 N9        29.90R
POTTSTOWN      SUNNY     72  59  63 N9        29.90R
BLUE BELL      MOSUNNY   72  57  60 N3        29.88S
DOYLESTOWN     MOSUNNY   74  62  66 VRB7      29.87R
WILLOW GROVE   NOT AVBL
NORTH PHILA    MOSUNNY   79  64  60 NW10      29.87R
PHILADELPHIA   PTSUNNY   78  63  59 N16G23    29.85R
$$




USA.gov is the U.S. government's official web portal to all federal, state and local government web resources and services.